Punkttermin-Prognose für Kampen / Sylt
Modell: MOSMIX (Deutscher Wetterdienst)
Modelllaufzeit: 06 UTC
Aktualisierung: stündlich
Mittwoch - 17.07.2019
| Wetter - | Temperaturen | Wind | Niederschlag | Druck | Sonne
Zeit GZ | Bewölkung | TT MAX MIN TG TM | DD FF FX1 | RR1 RR24 | PPPP | SS1 SS24
02:00 Uhr | --- | --- --- --- --- --- | --- --- --- | --- | --- | ---
03:00 Uhr | --- | --- --- --- --- --- | --- --- --- | --- | --- | ---
04:00 Uhr | --- | --- --- --- --- --- | --- --- --- | --- | --- | ---
05:00 Uhr | --- | --- --- --- --- --- | --- --- --- | --- | --- | ---
06:00 Uhr | --- | --- --- --- --- --- | --- --- --- | --- | --- | ---
07:00 Uhr | --- | --- --- --- --- --- | --- --- --- | --- | --- | ---
08:00 Uhr | --- | --- --- --- --- --- | --- --- --- | --- | --- | ---
09:00 Uhr | stark bewölkt | 15 --- --- 17 --- | NW 13 --- | 0.0 | 1015 | 0.3
10:00 Uhr | stark bewölkt | 16 --- --- 19 --- | NW 13 --- | 0.0 | 1016 | 0.4
11:00 Uhr | wolkig | 16 --- --- 20 --- | NW 13 --- | 0.0 | 1016 | 0.4
12:00 Uhr | wolkig | 17 --- --- 22 --- | NW 13 --- | 0.0 | 1016 | 0.5
13:00 Uhr | wolkig | 17 --- --- 23 --- | NW 13 --- | 0.0 | 1015 | 0.5
14:00 Uhr | wolkig | 17 --- --- 23 --- | W 13 --- | 0.0 | 1015 | 0.6
15:00 Uhr | wolkig | 18 --- --- 24 --- | W 15 --- | 0.0 | 1015 | 0.6
16:00 Uhr | wolkig | 17 --- --- 24 --- | W 15 --- | 0.0 | 1015 | 0.6
17:00 Uhr | wolkig | 17 --- --- 23 --- | W 15 --- | 0.0 | 1015 | 0.6
18:00 Uhr | wolkig | 17 --- --- 22 --- | W 13 --- | 0.0 | 1015 | 0.6
19:00 Uhr | wolkig | 17 --- --- 20 --- | W 13 --- | 0.0 | 1015 | 0.6
20:00 Uhr | wolkig | 16 19 --- 18 --- | W 11 --- | 0.0 | 1014 | 0.5
21:00 Uhr | wolkig | 16 --- --- 16 --- | NW 9 --- | 0.0 | 1014 | 0.4
22:00 Uhr | wolkig | 15 --- --- 14 --- | W 9 --- | 0.0 | 1014 | 0.2
23:00 Uhr | wolkig | 15 --- --- 13 --- | NW 7 --- | 0.0 | 1014 | 0.0
00:00 Uhr | wolkig | 15 --- --- 13 --- | W 9 --- | 0.0 | 1014 | 0.0
Donnerstag - 18.07.2019
| Wetter - | Temperaturen | Wind | Niederschlag | Druck | Sonne
Zeit GZ | Bewölkung | TT MAX MIN TG TM | DD FF FX1 | RR1 RR24 | PPPP | SS1 SS24
01:00 Uhr | wolkig | 15 --- --- 13 --- | SO 9 --- | 0.0 | 1014 | 0.0
02:00 Uhr | leicht bewölkt | 15 --- --- 12 --- | SO 9 --- | 0.0 | 1013 | 0.0
03:00 Uhr | wolkig | 15 --- --- 12 --- | SO 9 --- | 0.0 | 1013 | 0.0
04:00 Uhr | wolkig | 15 --- --- 12 --- | SO 11 --- | 0.0 | 1013 | 0.0
05:00 Uhr | leicht bewölkt | 15 --- --- 13 --- | SO 13 --- | 0.0 | 1013 | 0.0
06:00 Uhr | leicht bewölkt | 15 --- --- 14 --- | SO 13 --- | 0.0 | 1012 | 0.2
07:00 Uhr | leicht bewölkt | 16 --- --- 15 --- | SO 13 --- | 0.0 | 1012 | 0.4
08:00 Uhr | wolkig | 16 --- 14 17 --- | SO 15 --- | 0.0 | 1012 | 0.6
09:00 Uhr | wolkig | 17 --- --- 19 --- | SO 15 --- | 0.0 | 1012 | 0.6
10:00 Uhr | wolkig | 18 --- --- 22 --- | SO 15 --- | 0.0 | 1012 | 0.7
11:00 Uhr | wolkig | 18 --- --- 24 --- | SO 17 --- | 0.0 | 1012 | 0.7
12:00 Uhr | wolkig | 19 --- --- 25 --- | S 17 --- | 0.0 | 1012 | 0.7
13:00 Uhr | wolkig | 20 --- --- 26 --- | S 15 --- | 0.0 | 1011 | 0.7
14:00 Uhr | wolkig | 20 --- --- 26 --- | S 17 --- | 0.0 | 1011 | 0.6
15:00 Uhr | wolkig | 20 --- --- 26 --- | S 17 --- | 0.0 | 1011 | 0.6
16:00 Uhr | wolkig | 20 --- --- 25 --- | S 17 --- | 0.0 | 1011 | 0.5
17:00 Uhr | stark bewölkt | 20 --- --- 24 --- | S 15 --- | 0.0 | 1010 | 0.4
18:00 Uhr | stark bewölkt | 20 --- --- 23 --- | S 15 --- | 0.0 | 1010 | 0.4
19:00 Uhr | stark bewölkt | 20 --- --- 22 --- | SO 15 --- | 0.0 | 1010 | 0.3
20:00 Uhr | wolkig | 20 22 --- 20 --- | SO 13 --- | 0.0 | 1010 | 0.3
21:00 Uhr | stark bewölkt | 19 --- --- 18 --- | S 13 --- | 0.0 | 1010 | 0.2
22:00 Uhr | stark bewölkt | 18 --- --- 17 --- | S 11 --- | 0.0 | 1010 | 0.1
23:00 Uhr | stark bewölkt | 18 --- --- 16 | S 13 --- | 0.0 | 1010 | 0.0
00:00 Uhr | stark bewölkt | 17 --- --- 16 18 | S 13 --- | 0.0 0.0 | 1010 | 0.0 7.7
Freitag - 19.07.2019
| Wetter - | Temperaturen | Wind | Niederschlag | Druck | Sonne
Zeit GZ | Bewölkung | TT MAX MIN TG TM | DD FF FX1 | RR1 RR24 | PPPP | SS1 SS24
01:00 Uhr | stark bewölkt | 17 --- --- 16 --- | S 13 --- | 0.0 | 1011 | 0.0
02:00 Uhr | stark bewölkt | 17 --- --- 16 --- | SW 13 --- | 0.0 | 1011 | 0.0
03:00 Uhr | stark bewölkt | 17 --- --- 16 --- | SW 15 --- | 0.0 | 1011 | 0.0
04:00 Uhr | stark bewölkt | 17 --- --- 15 --- | SW 13 --- | 0.0 | 1011 | 0.0
05:00 Uhr | stark bewölkt | 16 --- --- 15 --- | SW 13 --- | 0.0 | 1011 | 0.0
06:00 Uhr | stark bewölkt | 16 --- --- 16 --- | SW 13 --- | 0.0 | 1011 | 0.1
07:00 Uhr | stark bewölkt | 16 --- --- 16 --- | SW 15 --- | 0.0 | 1012 | 0.1
08:00 Uhr | wolkig | 17 --- 16 17 --- | SW 15 --- | 0.0 | 1012 | 0.3
09:00 Uhr | wolkig | 17 --- --- 18 --- | SW 15 --- | 0.0 | 1012 | 0.3
10:00 Uhr | wolkig | 17 --- --- 20 --- | SW 15 --- | 0.0 | 1012 | 0.4
11:00 Uhr | wolkig | 18 --- --- 21 --- | SW 15 --- | 0.0 | 1013 | 0.5
12:00 Uhr | wolkig | 18 --- --- 22 --- | SW 17 --- | 0.0 | 1013 | 0.5
13:00 Uhr | wolkig | 18 --- --- 23 --- | SW 17 --- | 0.0 | 1013 | 0.6
14:00 Uhr | wolkig | 19 --- --- 24 --- | SW 17 --- | 0.0 | 1013 | 0.6
15:00 Uhr | wolkig | 19 --- --- 24 --- | SW 17 --- | 0.0 | 1014 | 0.7
16:00 Uhr | wolkig | 19 --- --- 24 --- | W 17 --- | 0.0 | 1014 | 0.7
17:00 Uhr | wolkig | 19 --- --- 24 --- | W 15 --- | 0.0 | 1014 | 0.7
18:00 Uhr | wolkig | 19 --- --- 23 --- | W 15 --- | 0.0 | 1014 | 0.6
19:00 Uhr | wolkig | 19 --- --- 21 --- | SW 13 --- | 0.0 | 1014 | 0.6
20:00 Uhr | wolkig | 18 21 --- 19 --- | SW 13 --- | 0.0 | 1014 | 0.5
21:00 Uhr | wolkig | 18 --- --- 17 --- | SW 11 --- | 0.0 | 1014 | 0.3
22:00 Uhr | wolkig | 17 --- --- 16 --- | SO 11 --- | 0.0 | 1014 | 0.2
23:00 Uhr | wolkig | 17 --- --- 15 | SO 11 --- | 0.0 | 1014 | 0.0
00:00 Uhr | wolkig | 17 --- --- 15 18 | SO 13 --- | 0.0 0.0 | 1014 | 0.0 7.5
Samstag - 20.07.2019
| Wetter - | Temperaturen | Wind | Niederschlag | Druck | Sonne
Zeit GZ | Bewölkung | TT MAX MIN TG TM | DD FF FX3 | RR3 RR24 | PPPP | SS3 SS24
02:00 Uhr | wolkig | 17 --- --- 15 --- | SO 18 --- | 0.0 | 1014 | 0.0
05:00 Uhr | wolkig | 17 --- --- 15 --- | SO 18 --- | 0.0 | 1012 | 0.0
08:00 Uhr | stark bewölkt | 18 --- 16 18 --- | SO 22 --- | 0.0 | 1012 | 0.3
11:00 Uhr | stark bewölkt | 19 --- --- 21 --- | SO 22 --- | 0.0 | 1011 | 0.6
14:00 Uhr | leichter Regen | 20 --- --- 22 --- | S 24 --- | 1.4 | 1011 | 0.8
17:00 Uhr | leichter Regen | 20 --- --- 21 --- | S 24 --- | 1.1 | 1010 | 0.7
20:00 Uhr | stark bewölkt | 19 22 --- 19 --- | S 20 41 | 0.6 | 1011 | 0.5
23:00 Uhr | wolkig | 18 --- --- 17 18 | S 22 --- | 0.0 3.1 | 1011 | 0.2 3.0
Sonntag - 21.07.2019
| Wetter - | Temperaturen | Wind | Niederschlag | Druck | Sonne
Zeit GZ | Bewölkung | TT MAX MIN TG TM | DD FF FX3 | RR3 RR24 | PPPP | SS3 SS24
02:00 Uhr | wolkig | 17 --- --- 16 --- | S 22 --- | 0.0 | 1011 | 0.0
05:00 Uhr | wolkig | 17 --- --- 16 --- | SW 18 --- | 0.0 | 1012 | 0.0
08:00 Uhr | wolkig | 18 --- 16 18 --- | SW 20 --- | 0.0 | 1012 | 0.5
11:00 Uhr | wolkig | 19 --- --- 21 --- | SW 22 --- | 0.0 | 1013 | 1.2
14:00 Uhr | wolkig | 20 --- --- 24 --- | SW 24 --- | 0.0 | 1015 | 1.7
17:00 Uhr | wolkig | 19 --- --- 23 --- | SW 24 41 | 0.0 | 1016 | 2.0
20:00 Uhr | wolkig | 18 21 --- 19 --- | W 22 --- | 0.0 | 1017 | 1.6
23:00 Uhr | wolkig | 17 --- --- 16 18 | W 17 --- | 0.0 0.0 | 1018 | 0.5 7.5
Montag - 22.07.2019
| Wetter - | Temperaturen | Wind | Niederschlag | Druck | Sonne
Zeit GZ | Bewölkung | TT MAX MIN TG TM | DD FF FX3 | RR3 RR24 | PPPP | SS3 SS24
02:00 Uhr | wolkig | 17 --- --- 15 --- | SW 17 --- | 0.0 | 1019 | 0.0
05:00 Uhr | wolkig | 16 --- --- 15 --- | SW 17 --- | 0.0 | 1019 | 0.0
08:00 Uhr | wolkig | 18 --- 16 18 --- | SW 18 --- | 0.0 | 1019 | 0.5
11:00 Uhr | wolkig | 19 --- --- 22 --- | SW 22 --- | 0.0 | 1019 | 1.3
14:00 Uhr | wolkig | 20 --- --- 25 --- | SW 24 --- | 0.0 | 1020 | 1.4
17:00 Uhr | wolkig | 20 --- --- 24 --- | SW 24 --- | 0.0 | 1019 | 1.5
20:00 Uhr | wolkig | 19 22 --- 20 --- | SW 20 --- | 0.0 | 1020 | 1.4
23:00 Uhr | wolkig | 17 --- --- 16 18 | SW 18 --- | 0.0 0.0 | 1019 | 0.6 6.6
Dienstag - 23.07.2019
| Wetter - | Temperaturen | Wind | Niederschlag | Druck | Sonne
Zeit GZ | Bewölkung | TT MAX MIN TG TM | DD FF FX3 | RR3 RR24 | PPPP | SS3 SS24
02:00 Uhr | wolkig | 18 --- --- 16 --- | S 17 --- | 0.0 | 1020 | 0.0
05:00 Uhr | wolkig | 17 --- --- 16 --- | S 18 --- | 0.0 | 1019 | 0.0
08:00 Uhr | wolkig | 18 --- 17 20 --- | S 18 --- | 0.0 | 1019 | 0.9
11:00 Uhr | wolkig | 21 --- --- 24 --- | S 20 --- | 0.0 | 1019 | 1.7
14:00 Uhr | wolkig | 22 --- --- 28 --- | SW 20 --- | 0.0 | 1019 | 1.9
17:00 Uhr | wolkig | 22 --- --- 26 --- | SW 20 --- | 0.0 | 1018 | 2.1
20:00 Uhr | leicht bewölkt | 21 24 --- 22 --- | SW 18 --- | 0.0 | 1018 | 1.9
23:00 Uhr | leicht bewölkt | 19 --- --- 18 20 | S 18 --- | 0.0 0.0 | 1018 | 0.7 9.2
Mittwoch - 24.07.2019
| Wetter - | Temperaturen | Wind | Niederschlag | Druck | Sonne
Zeit GZ | Bewölkung | TT MAX MIN TG TM | DD FF FX3 | RR3 RR24 | PPPP | SS3 SS24
02:00 Uhr | wolkig | 19 --- --- 18 --- | SO 18 --- | 0.0 | 1017 | 0.0
05:00 Uhr | wolkig | 18 --- --- 18 --- | S 20 --- | 0.0 | 1017 | 0.0
08:00 Uhr | wolkig | 19 --- 18 21 --- | S 20 --- | 0.0 | 1017 | 0.8
11:00 Uhr | wolkig | 22 --- --- 26 --- | S 20 --- | 0.0 | 1017 | 1.7
14:00 Uhr | wolkig | 24 --- --- 30 --- | SW 20 --- | 0.0 | 1017 | 2.0
17:00 Uhr | leicht bewölkt | 24 --- --- 27 --- | SW 20 --- | 0.0 | 1017 | 2.2
20:00 Uhr | wolkig | 22 25 --- 22 --- | W 18 --- | 0.0 | 1018 | 1.9
23:00 Uhr | wolkig | 20 --- --- 18 21 | NW 17 --- | 0.0 0.0 | 1018 | 0.6 9.2
Donnerstag - 25.07.2019
| Wetter - | Temperaturen | Wind | Niederschlag | Druck | Sonne
Zeit GZ | Bewölkung | TT MAX MIN TG TM | DD FF FX3 | RR3 RR24 | PPPP | SS3 SS24
02:00 Uhr | wolkig | 19 --- --- 18 --- | NW 17 --- | 0.0 | 1018 | 0.0
05:00 Uhr | wolkig | 19 --- --- 17 --- | SO 17 --- | 0.0 | 1018 | 0.0
08:00 Uhr | wolkig | 20 --- 18 21 --- | S 17 --- | 0.0 | 1018 | 1.0
11:00 Uhr | wolkig | 22 --- --- 26 --- | S 17 --- | 0.0 | 1018 | 1.9
14:00 Uhr | wolkig | 24 --- --- 30 --- | SW 18 --- | 0.0 | 1017 | 2.1
17:00 Uhr | wolkig | 24 --- --- 28 --- | SW 20 --- | 0.0 | 1017 | 2.2
20:00 Uhr | wolkig | 23 26 --- 23 --- | S 18 --- | 0.0 | 1017 | 1.9
23:00 Uhr | wolkig | 20 --- --- 19 21 | S 13 --- | 0.0 0.0 | 1018 | 0.5 9.6
Freitag - 26.07.2019
| Wetter - | Temperaturen | Wind | Niederschlag | Druck | Sonne
Zeit GZ | Bewölkung | TT MAX MIN TG TM | DD FF FX3 | RR3 RR24 | PPPP | SS3 SS24
02:00 Uhr | wolkig | 20 --- --- 18 --- | S 15 --- | 0.0 | 1017 | 0.0
05:00 Uhr | wolkig | 19 --- --- 18 --- | SO 18 --- | 0.0 | 1016 | 0.0
08:00 Uhr | wolkig | 20 --- 19 21 --- | S 18 --- | 0.0 | 1017 | 0.9
11:00 Uhr | wolkig | 22 --- --- 26 --- | SW 20 --- | 0.0 | 1016 | 1.7
14:00 Uhr | wolkig | 23 --- --- 28 --- | W 24 --- | 0.0 | 1016 | 2.0
17:00 Uhr | wolkig | 23 --- --- 27 --- | W 24 --- | 0.0 | 1016 | 1.9
20:00 Uhr | wolkig | 21 25 --- 23 --- | NW 22 --- | 0.0 | 1017 | 1.6
23:00 Uhr | wolkig | 20 --- --- 19 21 | NW 20 --- | 0.0 0.0 | 1017 | 0.7 8.8
Samstag - 27.07.2019
| Wetter - | Temperaturen | Wind | Niederschlag | Druck | Sonne
Zeit GZ | Bewölkung | TT MAX MIN TG TM | DD FF FX3 | RR3 RR24 | PPPP | SS3 SS24
02:00 Uhr | wolkig | 19 --- --- 18 --- | NW 20 --- | 0.0 | 1016 | 0.0
05:00 Uhr | wolkig | 19 --- --- 18 --- | NW 20 --- | 0.0 | 1016 | 0.0
08:00 Uhr | wolkig | 18 --- 17 19 --- | SW 22 --- | 0.0 | 1014 | 0.7
---:00 Uhr | --- | --- --- --- --- --- | --- --- --- | --- | --- | ---
---:00 Uhr | --- | --- --- --- --- --- | --- --- --- | --- | --- | ---
---:00 Uhr | --- | --- --- --- --- --- | --- --- --- | --- | --- | ---
---:00 Uhr | --- | --- --- --- --- --- | --- --- --- | --- | --- | ---
---:00 Uhr | --- | --- --- --- --- --- | --- --- --- | --- --- | --- | ---


Wetter : Wetter/Bewölkung zum Termin (aktuelle Stunde) TT : Lufttemperatur in Grad Celsius zum Termin MAX : Maximum Lufttemperatur in Grad Celsius letzte 12 Stunden MIN : Minimum Lufttemperatur der vergangenen Nacht in Grad Celsius letzte 12 Stunden TG : Temperatur in 5cm überm Erdboden TM : Tagesmittel Lufttemperatur in Grad Celsius letzte 24 Stunden DD : Windrichtung zum Termin FF : Windgeschwindigkeit zum Termin FX1 : höchste Windspitze im Bezugszeitraum letzte 1 Stunde in km/h FX3 : höchste Windspitze im Bezugszeitraum letzte 3 Stunden in km/h PPPP : reduzierter Luftdruck auf Meereshöhe in hPa zum Termin RR1 : Niederschlagsmenge im Bezugszeitraum letzte 1 Stunde in mm = l/qm RR3 : Niederschlagsmenge im Bezugszeitraum letzte 3 Stunden in mm = l/qm RR24 : Niederschlagsmenge im Bezugszeitraum letzte 24 Stunden in mm = l/qm SS1 : Sonnenscheindauer letzte 1 Stunde SS3 : Sonnenscheindauer letzte 3 Stunden SS24 : Sonnenscheindauer letzte 24 Stunden --- : Wert nicht vorhanden